Overview Statistics Trail Chart Weather Telemetry Raw packets
 

This is the latest recevied weather packets stored in our database for station/object N7IGG. If no packets are shown the sender has not sent any weather packets the latest 10 day(s).

<< 32 33 34 35 36 37 38 >>
Time Temp. Humidity Pressure Rain* Wind** Luminosity Snow
1777960050 13.33° C 87% 1011.7 hPa 0 mm - 0 W/m² -
1777959748 13.89° C 86% 1011.7 hPa 0 mm - 0 W/m² -
1777959455 13.89° C 86% 1011.6 hPa 0 mm - 0 W/m² -
1777959142 13.89° C 86% 1011.7 hPa 0 mm - 0 W/m² -
1777958839 13.89° C 86% 1011.5 hPa 0 mm - 0 W/m² -
1777958536 14.44° C 85% 1011.7 hPa 0 mm - 0 W/m² -
1777958234 14.44° C 85% 1011.6 hPa 0 mm - 0 W/m² -
1777957932 14.44° C 85% 1011.6 hPa 0 mm - 0 W/m² -
1777957629 14.44° C 85% 1011.5 hPa 0 mm - 0 W/m² -
1777957327 14.44° C 84% 1011.4 hPa 0 mm - 0 W/m² -
1777957022 14.44° C 84% 1011.3 hPa 0 mm - 0 W/m² -
1777956721 14.44° C 84% 1011.4 hPa 0 mm - 0 W/m² -
1777956417 15° C 83% 1011.3 hPa 0 mm - 0 W/m² -
1777956113 15° C 83% 1011.2 hPa 0 mm - 0 W/m² -
1777955810 14.44° C 83% 1011 hPa 0 mm - 0 W/m² -
1777955506 15° C 82% 1011.1 hPa 0 mm - 0 W/m² -
1777955202 15° C 81% 1010.9 hPa 0 mm - 0 W/m² -
1777954900 15.56° C 80% 1010.9 hPa 0 mm - 0 W/m² -
1777954597 15.56° C 79% 1010.7 hPa 0 mm - 0 W/m² -
1777954294 16.11° C 79% 1010.8 hPa 0 mm - 0 W/m² -
1777953991 16.11° C 78% 1010.7 hPa 0 mm - 0 W/m² -
1777953688 16.67° C 77% 1010.4 hPa 0 mm - 0 W/m² -
1777953384 16.67° C 77% 1010.3 hPa 0 mm - 0 W/m² -
1777953081 17.22° C 76% 1010.4 hPa 0 mm - 0 W/m² -
1777952778 17.22° C 76% 1010.3 hPa 0 mm - 0 W/m² -

* Rain latest hour (hover to see other rain measurements)
** Current wind speed in m/s (hover to see current wind gust speed)